map of IWD home
IWD - Airport
Location
City:  Ironwood, Michigan, United States
Name:Gogebic-Iron County Airport
ICAO:KIWD
IATA:IWD
FAA LID:IWD

Details
Type:Airport (Part 139 Class I)
Use:Public/Civil
Latitude:4631'39"N (46.527472)
Longitude:9007'53"W (-90.131388)
Datum:WGS 1984
Elevation:1230 ft (375 m)
Variation:2.68W (WMM2015 magnetic declination)
-0.05 annual change
Runways:1
Longest:6502 × 120 ft (1982 × 36.5 m), paved

Time
Time Zone:UTC-6 (DST-5)
Local Time:

Weather
METAR:KIWD 181156Z AUTO 00000KT 10SM SCT060 16/12 A3016 RMK AO2 SLP212 6//// 7//// T01560122 10156 20072 53004 PNO $
TAF:KIWD 181127Z 1812/1912 00000KT P6SM SCT060
FM181700 VRB04KT P6SM SCT200

Related Locations
Nearby:
Farthest:YAUG: 10872 mi / 17497 km
Augusta [Augusta Airport], WA, AU

Find:

   beyond  
but within

Other Information
Maps:
NOTAMs:
Links:
Sources:

  
  • flag of United States
  • flag of Michigan
  

Sectional Chart

Flight Planning
at skyvector.com

Satellite Image

Google Maps Satellite view

 

Copyright © 2004-2018 Karl L. Swartz. All rights reserved.
The Great Circle Mapper name and logo are trademarks of the Great Circle Mapper.
All other trademarks mentioned herein belong to their respective owners.
Please see credits for attibutions and further copyright information.

  Follow gcmap on Facebook Follow gcmap on Twitter Follow gcmap on Google+ GCmap on LinkedIn

hCard Microformat

Geo Microformat